Location: Launay
(47.2429°N, 1.5727°E)
Time: 19:40:27
(UTC+00:00)

Cosmos 1400 Rocket - Pass Details

Date: 19 May 2025
Orbit: 484 x 519 km, 81.1° (Epoch: 23 June)

Event Time Altitude Azimuth Distance (km) Brightness Sun altitude
Rises 21:06:30 0° 211° (SSW) 2,558 6.0 -13.4°
Reaches altitude 10° 21:08:44 10° 221° (SW) 1,677 5.2 -13.6°
Maximum altitude 21:12:06 34° 287° (WNW) 828 4.3 -14.0°
Drops below altitude 10° 21:15:29 10° 354° (N) 1,680 6.2 -14.3°
Sets 21:17:44 0° 4° (N) 2,565 7.1 -14.5°
